Location: East Stourmouth
(51.3000°N, 1.2500°E)
Time: 16:58:58
(UTC+00:00)

Daily predictions for brighter satellites

Satellite Brightness Start Highest point End
(mag) Time Altitude Azimuth Time Altitude Azimuth Time Altitude Azimuth
Cosmos 1544 Rocket 4.2 20:59:00 10° N 21:03:08 41° ENE 21:07:14 10° SE
FALCON 9 DEB 3.7 21:02:58 10° SSW 21:05:56 32° SSE 21:08:54 10° E
SL-8 R/B 3.9 21:02:51 10° WSW 21:07:31 52° SSE 21:12:12 10° E
Terra 2.1 21:03:28 10° SSE 21:08:07 57° ENE 21:12:48 10° N
Cosmos 1980 Rocket 4.5 21:05:14 10° NNW 21:08:55 17° NNE 21:12:36 10° ENE
USA 267 3.6 21:03:38 10° ENE 21:09:48 43° SE 21:15:57 10° SSW
Cosmos 1455 2.9 21:07:20 10° N 21:10:57 41° ENE 21:14:34 10° SE
Cosmos 2369 Rocket 4.0 21:07:26 10° NW 21:11:58 26° WSW 21:16:29 10° SSW
Meteor 1-24 Rocket 3.9 21:07:55 10° S 21:13:02 52° E 21:18:15 10° NNE
Cosmos 1697 Rocket 4.4 21:09:28 10° NNW 21:14:04 25° NE 21:18:39 10° E
Cosmos 2315 Rocket 4.1 21:07:58 10° S 21:14:16 68° E 21:20:32 10° NNE
NOSS 2-1 (C) 4.2 21:11:41 10° NW 21:15:45 57° NE 21:21:22 10° ESE
RESURS DK-1 4.4 21:15:08 10° N 21:18:15 20° NE 21:21:22 10° E
Cosmos 1371 Rocket 4.3 21:13:47 10° S 21:18:46 47° ESE 21:23:49 10° NE
Spot 2 Rocket 3.6 21:16:14 10° SSE 21:21:19 81° WSW 21:26:28 10° NNW
NOSS 2-1 (D) 4.1 21:21:59 10° NW 21:26:08 65° NE 21:31:56 10° SE
CZ-4B R/B 3.4 21:23:47 10° N 21:26:15 25° WNW 21:28:41 10° SW
Lacrosse 5 rocket 1.2 21:23:52 10° WNW 21:27:42 85° SSW 21:31:45 10° SE
Cosmos 1709 Rocket 4.2 21:21:51 10° NNW 21:28:00 71° W 21:34:11 10° S
ARIANE 5 R/B 2.8 21:23:38 10° SSE 21:28:04 65° ENE 21:32:30 10° N
SPOT 3 Rocket 4.4 21:24:17 10° S 21:29:17 48° W 21:34:21 10° NNW
Cosmos 2084 4.5 21:27:24 10° S 21:30:21 21° ESE 21:33:20 10° ENE
Cosmos 2074 Rocket 4.3 21:30:03 10° N 21:36:15 57° ENE 21:42:02 12° SSE
ATLAS 2AS CENTAUR R/B 2.8 21:31:08 10° NW 21:38:25 88° NE 21:44:51 11° SE
Cosmos 1624 Rocket 4.0 21:35:20 10° S 21:40:30 65° ESE 21:45:41 10° NNE
Cosmos 1656 4.1 21:36:25 10° NNW 21:41:47 55° NE 21:46:54 11° SE
Cosmos 1190 Rocket 4.5 21:37:17 10° NNW 21:42:31 58° WSW 21:47:39 10° S
USA 234 3.3 21:39:16 10° SE 21:45:51 80° SSW 21:52:28 10° WNW
Cosmos 1833 Rocket 4.3 21:44:37 11° SE 21:47:39 17° E 21:51:10 10° ENE
Cosmos 1455 Rocket 4.2 21:45:39 10° NNW 21:49:43 39° W 21:53:45 10° SSW
Cosmos 2154 Rocket 4.3 21:49:26 10° N 21:55:36 57° ENE 22:00:52 14° SSE
SPOT 5 3.8 21:52:41 10° SSW 21:56:54 38° W 22:01:00 10° NNW
Cosmos 1271 Rocket 3.1 21:53:50 10° NNW 21:57:48 64° W 22:01:16 13° S
Nadezhda 1 Rocket 4.5 21:54:38 13° SSE 21:59:39 43° E 22:05:21 10° NNE
Cosmos 2056 Rocket 3.6 21:54:49 10° SSW 22:00:12 89° SE 22:05:41 10° NNE
Meteor 2-5 Rocket 4.2 21:56:49 10° SSW 22:02:16 60° WNW 22:07:47 10° N
Cosmos 1741 Rocket 4.4 21:57:20 10° NNW 22:02:36 58° ENE 22:07:02 14° SE
Cosmos 1025 Rocket 3.9 21:59:05 10° SSW 22:03:12 47° WNW 22:07:23 10° N
Cosmos 2344 4.4 21:58:38 10° NW 22:06:58 67° NE 22:18:23 10° ESE
Cosmos 676 Rocket 4.5 22:03:47 10° NNW 22:09:00 57° WSW 22:13:24 14° S
ERS-1 Rocket 4.1 22:05:09 10° SSW 22:09:49 37° W 22:14:31 10° NNW
Cosmos 1420 Rocket 4.0 22:07:13 10° SSW 22:12:28 89° WNW 22:17:48 10° NNE
Cosmos 1536 Rocket 3.5 22:13:47 13° S 22:17:39 88° E 22:22:01 10° N
Cosmos 1607 3.9 22:11:33 10° SSW 22:17:46 79° SE 22:23:59 10° NE
CZ-2C R/B 4.5 22:13:30 10° N 22:18:02 53° WNW 22:22:28 10° SW
Lacrosse 5 2.0 22:19:06 10° WNW 22:24:09 61° SW 22:27:56 17° SE
Cosmos 1606 Rocket 3.7 22:20:14 10° N 22:24:31 61° ENE 22:27:26 20° SSE
NOSS 2-1 (E) 4.2 22:20:19 10° NW 22:24:46 62° SW 22:29:25 17° SSE
SAR-Lupe-4 3.5 22:23:05 10° NNE 22:26:41 83° ESE 22:29:20 17° SSW
Cosmos 2184 Rocket 4.2 22:22:28 10° NNW 22:28:36 69° W 22:33:50 15° S
Cosmos 724 4.3 22:25:30 10° SSW 22:31:12 62° ESE 22:36:56 10° NE
Tiangong 3.6 22:32:22 10° SW 22:32:27 10° SW 22:32:27 10° SW
Cosmos 1850 Rocket 4.0 22:30:07 10° NNW 22:35:22 80° WSW 22:39:02 20° SSE
Lacrosse 4 Rocket 4.4 22:33:56 10° WNW 22:36:49 18° NNW 22:39:40 10° NNE
Cosmos 2228 3.2 22:34:04 10° NNW 22:38:18 67° W 22:41:10 20° S
Cosmos 1328 4.1 22:37:11 22° SSE 22:39:33 52° E 22:43:28 10° NNE
Meteor 1-21 Rocket 4.2 22:35:48 17° S 22:40:13 74° E 22:45:51 10° NNE
Cosmos 2341 Rocket 4.3 22:34:04 10° N 22:40:22 59° ENE 22:45:04 18° SSE
SL-16 R/B 4.5 22:36:32 10° NNW 22:40:42 20° NE 22:44:52 10° E
Cosmos 1703 3.5 22:38:48 16° SSW 22:41:50 67° WNW 22:45:41 10° N
FALCON 9 DEB 3.1 22:38:46 10° W 22:42:02 79° NNW 22:45:19 10° ENE
Cosmos 1408 3.8 22:43:33 20° SE 22:44:55 27° E 22:47:53 10° NNE
Cosmos 1455 4.4 22:43:26 10° NW 22:46:09 19° W 22:48:51 10° SW
Terra 3.7 22:42:33 10° SW 22:46:13 22° W 22:49:56 10° NW
Cosmos 1825 4.2 22:46:54 13° ESE 22:48:28 16° E 22:50:52 10° NE
ALOS 2 3.1 22:46:37 20° SE 22:49:30 53° ENE 22:53:48 10° N
SL-8 R/B 3.7 22:45:02 10° W 22:49:47 62° S 22:54:33 10° ESE
Cosmos 1726 Rocket 3.5 22:46:38 10° N 22:50:58 86° ENE 22:53:36 23° SSE
USA 267 3.4 22:46:38 10° ENE 22:53:12 83° NNW 22:59:46 10° WSW
Cosmos 1980 Rocket 2.8 22:48:41 10° NNW 22:54:18 53° NE 22:59:14 13° SE
RESURS DK-1 2.4 22:52:34 10° NW 22:56:43 73° WSW 22:59:03 25° SSE
Cosmos 1697 Rocket 2.7 22:53:06 10° NNW 22:58:46 86° WSW 23:02:42 21° SSE
Cosmos 1331 Rocket 4.1 22:57:22 20° S 23:01:01 62° ESE 23:06:16 10° NNE
Cosmos 1452 Rocket 3.6 22:57:19 13° SSW 23:02:09 83° WNW 23:07:27 10° NNE
Lacrosse 5 rocket 2.9 23:03:30 10° W 23:06:18 19° SW 23:07:17 17° SSW
Spot 4 3.9 23:04:25 23° S 23:07:26 71° WSW 23:12:14 10° NNW
ASTEX 1 3.7 23:02:51 10° N 23:07:49 64° W 23:11:36 17° SSW
ERS-2 3.4 23:05:07 10° NE 23:08:12 26° E 23:09:26 21° SE
Cosmos 1892 3.2 23:06:34 26° SSE 23:08:13 44° E 23:11:49 10° NNE
USA 276 3.3 23:10:15 24° ESE 23:10:15 24° ESE 23:11:47 10° E
Cosmos 2084 Rocket 4.0 23:05:39 10° NW 23:09:25 50° NE 23:13:11 11° ESE
Cosmos 2084 3.7 23:05:39 10° WSW 23:09:27 60° NW 23:13:19 10° NE
ADEOS Rocket 3.5 23:05:35 19° SSE 23:10:54 80° ENE 23:18:31 10° NNW
Cosmos 2058 Rocket 3.0 23:09:48 10° N 23:14:13 87° E 23:16:43 25° S
Cosmos 1110 Rocket 4.0 23:15:12 17° SSW 23:19:16 90° NNE 23:24:36 10° NNE
Cosmos 2181 Rocket 4.2 23:15:18 21° SSE 23:19:21 61° E 23:25:28 10° NNE
GP-B 3.5 23:15:52 10° N 23:20:14 58° W 23:23:05 21° SSW
Cosmos 2360 4.4 23:15:44 10° NW 23:21:24 63° WSW 23:25:00 23° S
Cosmos 2278 4.3 23:16:41 10° NNW 23:22:19 53° NE 23:27:31 12° SE
Cosmos 2322 Rocket 4.2 23:18:23 10° NNW 23:23:05 26° NE 23:27:46 10° E
Cosmos 1302 Rocket 4.4 23:21:10 24° S 23:24:05 49° ESE 23:29:05 10° NNE
Cosmos 1892 Rocket 3.6 23:22:22 23° SSW 23:25:07 78° W 23:29:34 10° N
Cosmos 864 Rocket 4.5 23:20:55 10° N 23:27:07 84° E 23:31:19 22° SSE
ATLAS 2AS CENTAUR R/B 4.0 23:22:57 10° WNW 23:28:29 25° WSW 23:32:16 16° SSW
USA 234 4.2 23:26:12 20° S 23:29:31 30° SW 23:35:12 10° WNW
Cosmos 1833 Rocket 2.7 23:26:16 16° SSW 23:30:47 89° ESE 23:36:27 10° NNE
BREEZE-M DEB (TANK) 3.7 23:36:10 10° W 23:39:27 72° S 23:52:04 10° ESE
Okean 1-7 Rocket 3.7 23:39:49 27° S 23:42:09 68° E 23:46:36 10° NNE
Cosmos 1626 Rocket 3.7 23:42:03 27° SSE 23:44:14 60° E 23:48:31 10° NNE
Cosmos 2082 Rocket 2.5 23:41:31 23° S 23:44:55 54° ESE 23:50:28 10° NE
Cosmos 1821 Rocket 4.3 23:40:07 10° N 23:46:24 63° ENE 23:50:56 19° SSE
Meteor 1-27 4.2 23:42:15 10° NNW 23:47:52 80° W 23:51:21 24° S
Cosmos 1869 3.2 23:45:15 10° NNW 23:49:07 82° W 23:50:55 30° S
ATLAS 5 CENTAUR R/B 3.4 23:51:03 12° ESE 23:51:36 13° ESE 23:53:20 10° E
Cosmos-2242 3.4 23:50:46 10° N 23:54:58 54° ENE 23:57:29 22° SE
BREEZE-M DEB (TANK) 3.7 23:47:19 10° SW 23:56:26 48° SSE 23:59:37 10° E
